Tracking 20626 objects as of 10-Apr-2020
HD Live streaming from Space Station
objects crossing your sky now

COSMOS 2531

Track COSMOS 2531 now!
10-day predictions


NORAD ID: 43752
Int'l Code: 2018-097B
Perigee: 1,489.3 km
Apogee: 1,513.7 km
Inclination: 82.5 °
Period: 115.9 minutes
Semi major axis: 7872 km
RCS: Unknown
Launch date: November 30, 2018
Source: Commonwealth of Independent States (former USSR) (CIS)
Launch site: PLESETSK MISSILE AND SPACE COMPLEX (PKMTR)
aabbcc
Your satellite tracking list
Your tracking list is empty




NASA's NSSDC Master Catalog

Two Line Element Set (TLE):
1 43752U 18097B   20101.00291170  .00000021  00000-0  84148-4 0  9992
2 43752  82.5219 184.7745 0015447 305.2332  54.7301 12.42891756 61737
Source of the keplerian elements: AFSPC